TimeEDT,TemperatureF,Dew PointF,Humidity,Sea Level PressureIn,VisibilityMPH,Wind Direction,Wind SpeedMPH,Gust SpeedMPH,PrecipitationIn,Events,Conditions,WindDirDegrees,DateUTC
12:15 AM,80.6,77.0,89,30.14,10.0,SSE,4.6,-,N/A,,Clear,160,2013-07-19 04:15:00
12:35 AM,80.6,77.0,89,30.14,10.0,South,5.8,-,N/A,,Clear,170,2013-07-19 04:35:00
12:55 AM,78.8,77.0,94,30.14,10.0,South,4.6,-,N/A,,Clear,170,2013-07-19 04:55:00
1:15 AM,78.8,77.0,94,30.14,10.0,SSE,5.8,-,N/A,,Clear,160,2013-07-19 05:15:00
1:35 AM,78.8,77.0,94,30.14,10.0,South,5.8,-,N/A,,Clear,180,2013-07-19 05:35:00
1:55 AM,78.8,77.0,94,30.13,10.0,South,5.8,-,N/A,,Clear,170,2013-07-19 05:55:00
2:15 AM,78.8,77.0,94,30.12,10.0,South,6.9,-,N/A,,Clear,170,2013-07-19 06:15:00
2:35 AM,78.8,77.0,94,30.13,10.0,South,6.9,-,N/A,,Clear,180,2013-07-19 06:35:00
2:55 AM,77.0,77.0,100,30.12,10.0,South,6.9,-,N/A,,Clear,180,2013-07-19 06:55:00
3:15 AM,77.0,77.0,100,30.11,10.0,South,6.9,-,N/A,,Clear,170,2013-07-19 07:15:00
3:35 AM,77.0,77.0,100,30.11,10.0,South,4.6,-,N/A,,Clear,180,2013-07-19 07:35:00
3:55 AM,77.0,77.0,100,30.11,10.0,South,4.6,-,N/A,,Clear,170,2013-07-19 07:55:00
4:15 AM,77.0,77.0,100,30.11,10.0,South,3.5,-,N/A,,Clear,190,2013-07-19 08:15:00
4:35 AM,77.0,77.0,100,30.11,10.0,Calm,Calm,-,N/A,,Clear,0,2013-07-19 08:35:00
4:55 AM,77.0,77.0,100,30.11,10.0,South,4.6,-,N/A,,Clear,180,2013-07-19 08:55:00
5:15 AM,75.2,75.2,100,30.11,10.0,South,5.8,-,N/A,,Clear,180,2013-07-19 09:15:00
5:35 AM,75.2,75.2,100,30.11,10.0,South,5.8,-,N/A,,Clear,180,2013-07-19 09:35:00
5:55 AM,75.2,75.2,100,30.11,10.0,South,4.6,-,N/A,,Clear,180,2013-07-19 09:55:00
6:15 AM,75.2,75.2,100,30.11,10.0,South,4.6,-,N/A,,Clear,170,2013-07-19 10:15:00
6:35 AM,73.4,73.4,100,30.11,10.0,South,5.8,-,N/A,,Clear,170,2013-07-19 10:35:00
6:55 AM,73.4,73.4,100,30.11,7.0,South,4.6,-,N/A,,Clear,180,2013-07-19 10:55:00
7:15 AM,75.2,75.2,100,30.12,10.0,South,3.5,-,N/A,,Clear,170,2013-07-19 11:15:00
7:35 AM,77.0,77.0,100,30.13,10.0,SSW,5.8,-,N/A,,Clear,200,2013-07-19 11:35:00
7:55 AM,77.0,77.0,100,30.13,10.0,SSW,4.6,-,N/A,,Clear,210,2013-07-19 11:55:00
8:15 AM,78.8,77.0,94,30.14,10.0,SSW,5.8,-,N/A,,Clear,200,2013-07-19 12:15:00
8:35 AM,78.8,77.0,94,30.14,10.0,SSW,4.6,-,N/A,,Clear,200,2013-07-19 12:35:00
8:55 AM,78.8,75.2,89,30.15,10.0,South,6.9,-,N/A,,Mostly Cloudy,190,2013-07-19 12:55:00
9:15 AM,80.6,75.2,84,30.15,10.0,South,6.9,-,N/A,,Mostly Cloudy,190,2013-07-19 13:15:00
9:35 AM,80.6,77.0,89,30.15,10.0,South,8.1,-,N/A,,Scattered Clouds,170,2013-07-19 13:35:00
9:55 AM,80.6,75.2,84,30.15,10.0,South,6.9,-,N/A,,Clear,190,2013-07-19 13:55:00
10:15 AM,82.4,75.2,79,30.15,10.0,South,6.9,-,N/A,,Clear,180,2013-07-19 14:15:00
10:35 AM,82.4,75.2,79,30.15,10.0,SSW,6.9,-,N/A,,Clear,200,2013-07-19 14:35:00
10:55 AM,84.2,73.4,70,30.15,10.0,SSW,4.6,-,N/A,,Clear,210,2013-07-19 14:55:00
11:15 AM,86.0,75.2,70,30.15,10.0,South,5.8,-,N/A,,Scattered Clouds,190,2013-07-19 15:15:00
11:35 AM,86.0,75.2,70,30.15,10.0,South,6.9,-,N/A,,Clear,190,2013-07-19 15:35:00
11:55 AM,86.0,75.2,70,30.14,10.0,South,4.6,-,N/A,,Scattered Clouds,190,2013-07-19 15:55:00
12:15 PM,86.0,77.0,74,30.14,10.0,South,4.6,-,N/A,,Mostly Cloudy,180,2013-07-19 16:15:00
12:35 PM,87.8,73.4,62,30.14,10.0,South,5.8,-,N/A,,Scattered Clouds,180,2013-07-19 16:35:00
12:55 PM,87.8,75.2,66,30.13,10.0,South,5.8,-,N/A,,Scattered Clouds,170,2013-07-19 16:55:00
1:15 PM,87.8,75.2,66,30.13,10.0,South,3.5,-,N/A,,Scattered Clouds,190,2013-07-19 17:15:00
1:35 PM,87.8,73.4,62,30.11,10.0,SW,5.8,-,N/A,,Mostly Cloudy,220,2013-07-19 17:35:00
1:55 PM,89.6,73.4,59,30.10,10.0,SSW,6.9,-,N/A,,Mostly Cloudy,200,2013-07-19 17:55:00
2:15 PM,89.6,73.4,59,30.08,10.0,Calm,Calm,-,N/A,,Scattered Clouds,0,2013-07-19 18:15:00
2:35 PM,89.6,73.4,59,30.08,10.0,South,6.9,-,N/A,,Scattered Clouds,190,2013-07-19 18:35:00
2:55 PM,89.6,73.4,59,30.08,10.0,South,5.8,-,N/A,,Scattered Clouds,180,2013-07-19 18:55:00
3:15 PM,89.6,71.6,55,30.08,10.0,SSE,6.9,-,N/A,,Mostly Cloudy,150,2013-07-19 19:15:00
3:35 PM,91.4,71.6,52,30.07,10.0,ESE,3.5,-,N/A,,Scattered Clouds,120,2013-07-19 19:35:00
3:55 PM,91.4,71.6,52,30.07,10.0,SE,6.9,-,N/A,,Scattered Clouds,140,2013-07-19 19:55:00
4:15 PM,91.4,64.4,41,30.06,10.0,SE,4.6,-,N/A,,Scattered Clouds,130,2013-07-19 20:15:00
4:35 PM,91.4,66.2,43,30.06,10.0,South,6.9,-,N/A,,Clear,190,2013-07-19 20:35:00
4:55 PM,91.4,64.4,41,30.04,10.0,South,4.6,-,N/A,,Clear,190,2013-07-19 20:55:00
5:15 PM,91.4,69.8,49,30.03,10.0,SE,6.9,-,N/A,,Clear,140,2013-07-19 21:15:00
5:35 PM,91.4,69.8,49,30.03,10.0,SE,5.8,-,N/A,,Clear,140,2013-07-19 21:35:00
5:55 PM,91.4,69.8,49,30.03,10.0,SSE,9.2,-,N/A,,Clear,150,2013-07-19 21:55:00
6:15 PM,91.4,71.6,52,30.02,10.0,SSE,10.4,16.1,N/A,,Scattered Clouds,150,2013-07-19 22:15:00
6:35 PM,86.0,75.2,70,30.02,10.0,South,9.2,-,N/A,,Scattered Clouds,170,2013-07-19 22:35:00
6:55 PM,87.8,75.2,66,30.02,10.0,South,9.2,-,N/A,,Clear,180,2013-07-19 22:55:00
7:15 PM,86.0,73.4,66,30.01,10.0,South,6.9,-,N/A,,Clear,180,2013-07-19 23:15:00
7:35 PM,86.0,75.2,70,30.02,10.0,South,6.9,-,N/A,,Clear,180,2013-07-19 23:35:00
7:55 PM,86.0,75.2,70,30.02,10.0,SSE,5.8,-,N/A,,Clear,160,2013-07-19 23:55:00
8:15 PM,84.2,75.2,74,30.02,10.0,SE,3.5,-,N/A,,Clear,140,2013-07-20 00:15:00
8:35 PM,82.4,77.0,84,30.02,10.0,SE,3.5,-,N/A,,Clear,130,2013-07-20 00:35:00
8:55 PM,82.4,77.0,84,30.03,10.0,Calm,Calm,-,N/A,,Clear,0,2013-07-20 00:55:00
9:15 PM,80.6,77.0,89,30.03,10.0,SSE,4.6,-,N/A,,Clear,150,2013-07-20 01:15:00
9:35 PM,80.6,77.0,89,30.03,10.0,SSE,4.6,-,N/A,,Clear,150,2013-07-20 01:35:00
9:55 PM,80.6,77.0,89,30.04,10.0,SSE,5.8,-,N/A,,Clear,150,2013-07-20 01:55:00
10:15 PM,78.8,77.0,94,30.05,10.0,SSE,4.6,-,N/A,,Clear,150,2013-07-20 02:15:00
10:35 PM,78.8,77.0,94,30.06,10.0,SSE,5.8,-,N/A,,Clear,160,2013-07-20 02:35:00
10:55 PM,78.8,77.0,94,30.07,10.0,SSE,5.8,-,N/A,,Clear,160,2013-07-20 02:55:00
11:15 PM,78.8,77.0,94,30.08,10.0,South,6.9,-,N/A,,Clear,170,2013-07-20 03:15:00
11:35 PM,78.8,77.0,94,30.08,10.0,South,5.8,-,N/A,,Clear,170,2013-07-20 03:35:00
11:55 PM,78.8,77.0,94,30.08,10.0,South,9.2,-,N/A,,Clear,170,2013-07-20 03:55:00